OPS 4682 DEB, 38367

Orbit data source: Space-Track

OPS 4682 DEB, 38367 is space debris in LEO originally from a launch on Sat, 03 Apr 1965 UTC launched from the Air Force Western Test Range (AFWTR). Debris objects in space refer to the collection of defunct objects orbiting the Earth. Examples of debris include non-operational satellites, rocket bodies, and fragments generated from explosions, collisions, or faulty payload assembly.

Loading next visibility...
Identifier
38367, 1965-027BU
Orbit
LEO
Country
Flag of USUS
Related business
Manufacturer
Unknown
Mission
Spacecraft
Bus & Motor
Unknown
Mass
Unknown
Launch date (UTC)
1965-04-03 (61 years ago)
Launch vehicle
Unknown
Launch site
Air Force Western Test Range (AFWTR)
Object type
Payload
Rocket body
Debris
Shape & HBR
Unknown shape, 0.1 m
Radar Cross Section
Medium (>0.1 m² and <1 m²)

Expand to show TLE details & history
Last TLE update: 1 day ago

TLE from 1 day ago
0 OPS 4682 DEB
1 38367U 65027BU  26206.90029752  .00000504  00000-0  17235-2 0  9996
2 38367  90.2448  11.6373 0035735  36.2765 324.0768 12.96726089313893
Epoch: 2026-07-25T21:36Z
TLE epoch observation values (Epoch: 2026-07-25T21:36:25.705Z)
Latitude
-0.00005°
Longitude
103.92425°
Altitude
1,255.703 km
Speed
7.238 km/s
True Right ascension
00h 46m 32s
True Declination
0° 00' 00"
Sunlit
Object was in daylight at epoch
Visualization orbit readout
Latitude
Unknown
Longitude
Unknown
Altitude
Unknown
Speed
Unknown
Apparent Right ascension
Unknown
Apparent Declination
Unknown
Sunlit
N/A
Visualization observer readout
Local Sidereal Time
21:03:32
Azimuth
Unknown
Elevation
Unknown
Doppler factor
Unknown
Orbital elements
Apogee altitude
1,299.411 km
Perigee altitude
1,244.735 km
Semi-major axis
7,650.21 km
Eccentricity
0.00357
Inclination
90.2448°
RAAN
11.6373°
Arg. of periapsis
36.2765°
True anomaly
323.83568°
Mean anomaly
324.0768°
Eccentric anomaly
323.95633°
Mean motion
3.24364 °/min
Orbital period
110.99 mins
BSTAR
0.0017235
Loading maneuver chart data...
Computing Atmospheric mass density...
Loading historical data...
Loading historical data...
Loading historical data...
Loading historical data...
Loading historical data...
Loading historical data...
Loading historical data...

Documentation

Showing up to 5 results
|